Location: Brachbach
(49.1847°N, 9.7240°E)
Time: 06:53:44
(UTC+00:00)

Cosmos 1025 Rocket - Pass Details

Date: 10 August 2024
Orbit: 590 x 612 km, 82.5° (Epoch: 07 September)

Event Time Altitude Azimuth Distance (km) Brightness Sun altitude
Rises 02:28:05 0° 2° (N) 2,889 7.3 -13.9°
Reaches altitude 10° 02:30:56 10° 21° (NNE) 1,981 6.7 -13.6°
Maximum altitude 02:34:00 18° 66° (ENE) 1,509 6.1 -13.2°
Drops below altitude 10° 02:37:02 10° 110° (ESE) 1,973 6.0 -12.9°
Sets 02:39:51 0° 129° (SE) 2,873 6.6 -12.5°
